CZ-4C DEB (43281 NORAD) Tracking and Keplerian Element Data

This shows tracking and keplerian element data for the satellite.

Feedback or suggestion? Click here.




ElementValue
Catalog43281
NameCZ-4C DEB
Epoch Orbit399
Epoch Day129.91764648
Epoch Year2018
RAAN136.3329
Inclination63.4052
Eccentricity0.0010126
Argument of Perigee33.0969
Mean Anonmoly327.0688
Mean Motion13.44201285
Decay Rate-5E-07
L11 43281U 18034G 18129.91764648 -.00000050 00000-0 68555-4 0 9999
L22 43281 63.4052 136.3329 0010126 33.0969 327.0688 13.44201285 3992

Live tracking and technical data element details for CZ-4C DEB (NORAD 43281). CZ-4C DEB can be tracked NOW for your location showing map with azimuth and elevation plus other details from your city location.

Track the satellite on the map from your city or location and see movement details for azimuth, elevation, latitude, longitude, range, height, and movement on the map or in text.







IsCatalogInMostPopularTable: catalog: 43281, numindb: 31
Update: records affected: 1



GetName: 43281 CZ-4C DEB

Hit Count: updated at: Thu, 19 Jul 2018 21:19:06 GMT